User: anonymous   Login
Location: Mt. Cuba Astronomical Observatory
(39.8100°N, 75.6300°W)
Time: 14:38:14
(UTC-04:00)
Language:

Cosmos 2058 - Orbit

View from above orbital plane
View from above orbital plane
View from above satellite
View from above satellite

Ground track
Ground track

The orbit data is extracted from the following two-line orbital elements,

1 20465U 90010A   16180.17919266  .00000229  00000-0  17384-4 0  9994
2 20465  82.4894 228.1457 0016934  51.0731 309.1998 14.97222198432365
Epoch (UTC): 28 June 2016 04:18:02
Eccentricity: 0.0016934
inclination: 82.4894°
perigee height: 564 km
apogee height: 587 km
right ascension of ascending node: 228.1457°
argument of perigee: 51.0731°
revolutions per day: 14.97222198
mean anomaly at epoch: 309.1998°
orbit number at epoch: 43236

The dashed part of the orbit path shows where the satellite is in the earth's shadow,  

DLR